This is the latest recevied weather packets stored in our database for station/object DG3RAP-11. If no packets are shown the sender has not sent any weather packets the latest 10 day(s).
| Time | Temp. | Humidity | Pressure | Rain* | Wind** | Luminosity | Snow |
|---|---|---|---|---|---|---|---|
| 1777982943 | 25.56° C | 27% | 1006.2 hPa | 0 mm | - | - | - |
| 1777982403 | 25.56° C | 29% | 1006 hPa | 0 mm | - | - | - |
| 1777982043 | 25.56° C | 31% | 1006 hPa | 0 mm | - | - | - |
| 1777981503 | 25.56° C | 32% | 1006.3 hPa | 0 mm | - | - | - |
| 1777980963 | 24.44° C | 33% | 1006.2 hPa | 0 mm | - | - | - |
| 1777980423 | 25° C | 34% | 1006.4 hPa | 0 mm | - | - | - |
| 1777979883 | 24.44° C | 34% | 1006.5 hPa | 0 mm | - | - | - |
| 1777979344 | 23.89° C | 35% | 1006.7 hPa | 0 mm | - | - | - |
| 1777978803 | 25° C | 38% | 1006.7 hPa | 0 mm | - | - | - |
| 1777978443 | 23.89° C | 35% | 1006.6 hPa | 0 mm | - | - | - |
| 1777977903 | 25° C | 36% | 1007 hPa | 0 mm | - | - | - |
| 1777977363 | 23.33° C | 42% | 1006.7 hPa | 0 mm | - | - | - |
| 1777976823 | 23.33° C | 41% | 1007.1 hPa | 0 mm | - | - | - |
| 1777976283 | 21.67° C | 43% | 1007.3 hPa | 0 mm | - | - | - |
| 1777975743 | 23.33° C | 42% | 1007.3 hPa | 0 mm | - | - | - |
| 1777975203 | 23.89° C | 43% | 1007.4 hPa | 0 mm | - | - | - |
| 1777974843 | 22.78° C | 45% | 1007.5 hPa | 0 mm | - | - | - |
| 1777974303 | 22.22° C | 45% | 1007.7 hPa | 0 mm | - | - | - |
| 1777973763 | 22.22° C | 48% | 1007.7 hPa | 0 mm | - | - | - |
| 1777973223 | 21.67° C | 49% | 1007.6 hPa | 0 mm | - | - | - |
| 1777972683 | 21.67° C | 50% | 1007.7 hPa | 0 mm | - | - | - |
| 1777972143 | 21.67° C | 50% | 1007.8 hPa | 0 mm | - | - | - |
| 1777971603 | 21.11° C | 52% | 1008.1 hPa | 0 mm | - | - | - |
| 1777971243 | 21.11° C | 53% | 1007.9 hPa | 0 mm | - | - | - |
| 1777970703 | 20° C | 55% | 1007.9 hPa | 0 mm | - | - | - |
* Rain latest hour (hover to see other rain measurements)
** Current wind speed in m/s (hover to see current wind gust speed)